Weather History for Mt. Clemens, MI

Change the Weather History Date:

Tuesday, December 31, 2013

  Actual Average Record
Temperature  
Mean Temperature 17 °F -  
Max Temperature 21 °F 31 °F 59 °F (1965)
Min Temperature 13 °F 18 °F -4 °F (1963)
Degree Days  
Heating Degree Days 48    
Moisture  
Dew Point 12 °F    
Average Humidity 78    
Maximum Humidity 93    
Minimum Humidity 56    
Precipitation  
Precipitation 0.04 in - - ()
Snow  
Snow 0.00 in - - ()
Snow Depth 1.00 in    
Sea Level Pressure  
Sea Level Pressure 30.11 in    
Wind  
Wind Speed 10 mph (WSW)    
Max Wind Speed 21 mph    
Max Gust Speed 28 mph    
Visibility 6 miles    
Events Snow    
Averages and records for this station are not official NWS values.
T = Trace of Precipitation, MM = Missing Value Source: NWS Daily Summary

Daily Weather History Graph

Daily Weather History Graph

Search for Another Location

Airport:

Trip Planner

Search our weather history database for the weather conditions in past years. The results will help you decide how hot, cold, wet, or windy it might be!

Date:

Astronomy

Dec. 31, 2013 Rise Set
Actual Time 8:01 AM EST 5:07 PM EST
Civil Twilight 7:29 AM EST 5:39 PM EST
Nautical Twilight 6:53 AM EST 6:15 PM EST
Astronomical Twilight 6:19 AM EST 6:49 PM EST
Moon 6:52 AM EST (12/31) 4:43 PM EST (12/31)
Length of Visible Light 10h 10m
Length of Day
9h 06m
Waning Crescent, 1% of the Moon is Illuminated
Dec 31
Waning Crescent
Jan 1
New
Jan 7
First Quarter
Jan 15
Full
Jan 24
Last Quarter

Hourly Weather History & Observations

Time (EST) Temp. Windchill Dew Point Humidity Pressure Visibility Wind Dir Wind Speed Gust Speed Precip Events Conditions
12:03 AM 19.4 °F 11.5 °F 14.0 °F 80% 30.08 in 10.0 mi South 5.8 mph - N/A   Overcast
12:13 AM 19.4 °F 11.5 °F 14.0 °F 80% 30.07 in 10.0 mi SSW 5.8 mph - N/A   Overcast
12:58 AM 20.7 °F 13.0 °F 15.3 °F 80% 30.10 in 10.0 mi SSW 5.8 mph - N/A   Overcast
1:39 AM 21.2 °F 11.7 °F 14.0 °F 74% 30.04 in 10.0 mi SW 8.1 mph - N/A Snow Light Snow
1:44 AM 21.2 °F 10.1 °F 14.0 °F 74% 30.04 in 8.0 mi SW 10.4 mph - N/A Snow Light Snow
1:54 AM 21.2 °F 10.9 °F 14.0 °F 74% 30.04 in 6.0 mi SW 9.2 mph - N/A Snow Light Snow
1:58 AM 21.0 °F 12.4 °F 14.4 °F 75% 30.08 in 5.0 mi SW 6.9 mph - 0.00 in Snow Light Snow
2:13 AM 21.2 °F 11.7 °F 15.8 °F 80% 30.04 in 9.0 mi SW 8.1 mph - N/A Snow Light Snow
2:18 AM 21.2 °F 10.9 °F 15.8 °F 80% 30.04 in 5.0 mi SW 9.2 mph - N/A Snow Light Snow
2:23 AM 21.2 °F 12.6 °F 15.8 °F 80% 30.03 in 3.0 mi SW 6.9 mph - N/A Snow Light Snow
2:33 AM 21.2 °F 11.7 °F 15.8 °F 80% 30.03 in 6.0 mi SW 8.1 mph - N/A Snow Light Snow
2:53 AM 21.2 °F 11.7 °F 15.8 °F 80% 30.03 in 4.0 mi SW 8.1 mph - N/A Snow Light Snow
2:58 AM 20.5 °F 10.8 °F 16.3 °F 84% 30.07 in 3.0 mi WSW 8.1 mph - 0.00 in Snow Light Snow
3:03 AM 21.2 °F 10.1 °F 15.8 °F 80% 30.03 in 2.5 mi WSW 10.4 mph - N/A Snow Light Snow
3:18 AM 19.4 °F 6.6 °F 17.6 °F 93% 30.03 in 1.8 mi West 12.7 mph - N/A Snow Light Snow
3:23 AM 19.4 °F 6.6 °F 15.8 °F 86% 30.03 in 1.2 mi West 12.7 mph - N/A Snow Light Snow
3:28 AM 19.4 °F 7.9 °F 15.8 °F 86% 30.02 in 1.5 mi West 10.4 mph - N/A Snow Light Snow
3:33 AM 19.4 °F 9.5 °F 15.8 °F 86% 30.02 in 3.0 mi West 8.1 mph - N/A Snow Light Snow
3:38 AM 19.4 °F 8.6 °F 15.8 °F 86% 30.02 in 6.0 mi West 9.2 mph - N/A Snow Light Snow
3:43 AM 19.4 °F 9.5 °F 15.8 °F 86% 30.02 in 7.0 mi West 8.1 mph - N/A Snow Light Snow
3:53 AM 19.4 °F 7.2 °F 15.8 °F 86% 30.02 in 4.0 mi West 11.5 mph - N/A Snow Light Snow
3:58 AM 18.3 °F 4.6 °F 15.1 °F 87% 30.06 in 4.0 mi West 13.8 mph - 0.00 in Snow Light Snow
4:03 AM 17.6 °F 5.0 °F 14.0 °F 86% 30.02 in 5.0 mi West 11.5 mph - N/A Snow Light Snow
4:08 AM 17.6 °F 5.7 °F 14.0 °F 86% 30.02 in 5.0 mi West 10.4 mph - N/A Snow Light Snow
4:13 AM 17.6 °F 3.2 °F 14.0 °F 86% 30.02 in 3.0 mi West 15.0 mph - N/A Snow Light Snow
4:18 AM 17.6 °F 5.7 °F 14.0 °F 86% 30.02 in 2.5 mi West 10.4 mph - N/A Snow Light Snow
4:23 AM 17.6 °F 5.0 °F 14.0 °F 86% 30.02 in 3.0 mi West 11.5 mph - N/A Snow Light Snow
4:38 AM 17.6 °F 5.7 °F 14.0 °F 86% 30.01 in 4.0 mi West 10.4 mph - N/A Snow Light Snow
4:48 AM 17.6 °F 3.7 °F 12.2 °F 79% 30.01 in 6.0 mi West 13.8 mph - N/A Snow Light Snow
4:53 AM 17.6 °F 5.0 °F 12.2 °F 79% 30.01 in 7.0 mi West 11.5 mph - N/A Snow Light Snow
4:58 AM 17.2 °F 5.2 °F 12.4 °F 81% 30.05 in 7.0 mi West 10.4 mph - 0.00 in Snow Light Snow
5:08 AM 17.6 °F 5.7 °F 12.2 °F 79% 30.01 in 7.0 mi West 10.4 mph - N/A Snow Light Snow
5:13 AM 17.6 °F 4.3 °F 12.2 °F 79% 30.01 in 7.0 mi West 12.7 mph - N/A Snow Light Snow
5:18 AM 17.6 °F 5.7 °F 12.2 °F 79% 30.01 in 9.0 mi West 10.4 mph - N/A Snow Light Snow
5:23 AM 17.6 °F 7.3 °F 12.2 °F 79% 30.01 in 10.0 mi West 8.1 mph - N/A Snow Light Snow
5:38 AM 17.6 °F 8.2 °F 12.2 °F 79% 30.01 in 6.0 mi WSW 6.9 mph - N/A Snow Light Snow
5:43 AM 17.6 °F 7.3 °F 12.2 °F 79% 30.01 in 5.0 mi SW 8.1 mph - N/A Snow Light Snow
5:48 AM 17.6 °F 5.0 °F 12.2 °F 79% 30.02 in 7.0 mi SW 11.5 mph - N/A Snow Light Snow
5:58 AM 17.1 °F 5.0 °F 12.9 °F 84% 30.06 in 6.0 mi WSW 10.4 mph - 0.00 in Snow Light Snow
6:08 AM 17.6 °F 3.7 °F 12.2 °F 79% 30.02 in 9.0 mi WSW 13.8 mph - N/A Snow Light Snow
6:13 AM 17.6 °F 4.3 °F 12.2 °F 79% 30.02 in 10.0 mi WSW 12.7 mph - N/A Snow Light Snow
6:17 AM 17.6 °F 5.0 °F 12.2 °F 79% 30.02 in 10.0 mi WSW 11.5 mph - N/A   Overcast
6:18 AM 17.6 °F 5.0 °F 12.2 °F 79% 30.02 in 10.0 mi WSW 11.5 mph - N/A   Light Freezing Drizzle
6:47 AM 17.6 °F 5.0 °F 10.4 °F 73% 30.03 in 10.0 mi WSW 11.5 mph - N/A   Mostly Cloudy
6:54 AM 17.6 °F 3.2 °F 10.4 °F 73% 30.03 in 10.0 mi West 15.0 mph - N/A Snow Light Snow
6:58 AM 16.9 °F 4.1 °F 10.6 °F 76% 30.07 in 10.0 mi WSW 11.5 mph - 0.00 in Snow Light Snow
7:08 AM 17.6 °F 5.0 °F 10.4 °F 73% 30.04 in 9.0 mi WSW 11.5 mph - N/A Snow Light Snow
7:31 AM 15.8 °F 0.9 °F 10.4 °F 79% 30.04 in 7.0 mi WSW 15.0 mph - N/A Snow Light Snow
7:40 AM 15.8 °F 3.4 °F 10.4 °F 79% 30.05 in 2.0 mi West 10.4 mph - N/A Snow Light Snow
7:51 AM 15.8 °F 2.1 °F 12.2 °F 86% 30.05 in 1.2 mi West 12.7 mph - N/A Snow Light Snow
7:55 AM 16.3 °F 2.7 °F 12.2 °F 84% 30.10 in 1.2 mi West 12.7 mph - N/A Snow Light Snow
8:06 AM 15.8 °F 2.7 °F 12.2 °F 86% 30.05 in 1.5 mi West 11.5 mph - N/A Snow Light Snow
8:28 AM 14.0 °F 2.9 °F 10.4 °F 86% 30.07 in 1.8 mi NW 8.1 mph - N/A Snow Light Snow
8:38 AM 14.0 °F 2.9 °F 8.6 °F 79% 30.07 in 3.0 mi WNW 8.1 mph - N/A Snow Light Snow
8:49 AM 14.0 °F -0.2 °F 6.8 °F 73% 30.08 in 10.0 mi WNW 12.7 mph - N/A   Mostly Cloudy
8:55 AM 13.8 °F 0.2 °F 7.0 °F 74% 30.14 in 10.0 mi WNW 11.5 mph - N/A   Mostly Cloudy
9:55 AM 15.8 °F -0.2 °F 7.0 °F 68% 30.17 in 10.0 mi WNW 17.3 mph 23.0 mph N/A   Mostly Cloudy
10:55 AM 17.1 °F 2.5 °F 7.0 °F 65% 30.21 in 10.0 mi West 15.0 mph 21.9 mph N/A   Scattered Clouds
11:55 AM 18.1 °F 2.4 °F 5.5 °F 58% 30.22 in 10.0 mi West 18.4 mph - N/A   Mostly Cloudy
12:55 PM 16.9 °F -0.1 °F 5.0 °F 60% 30.24 in 10.0 mi West 20.7 mph 27.6 mph N/A   Mostly Cloudy
1:55 PM 18.7 °F 5.1 °F 5.5 °F 57% 30.25 in 10.0 mi West 13.8 mph 21.9 mph N/A   Mostly Cloudy
2:55 PM 19.4 °F 5.0 °F 6.1 °F 56% 30.23 in 10.0 mi WSW 16.1 mph 21.9 mph N/A   Mostly Cloudy
3:55 PM 19.0 °F 6.1 °F 8.1 °F 62% 30.24 in 10.0 mi WSW 12.7 mph - N/A   Mostly Cloudy
4:55 PM 19.4 °F 7.9 °F 9.0 °F 64% 30.25 in 10.0 mi WSW 10.4 mph - N/A   Mostly Cloudy
5:15 PM 19.4 °F 7.9 °F 10.4 °F 68% 30.19 in 7.0 mi SW 10.4 mph - N/A Snow Light Snow
5:55 PM 19.8 °F 9.1 °F 10.4 °F 67% 30.26 in 12.0 mi WSW 9.2 mph - N/A Snow Light Snow
6:21 PM 19.4 °F 4.1 °F 8.6 °F 63% 30.20 in 12.0 mi West 18.4 mph - N/A   Mostly Cloudy
6:55 PM 19.0 °F 7.5 °F 7.0 °F 59% 30.27 in 12.0 mi WSW 10.4 mph - N/A   Mostly Cloudy
7:55 PM 17.8 °F 6.6 °F 7.2 °F 63% 30.29 in 12.0 mi West 9.2 mph - N/A   Scattered Clouds
8:58 PM 18.0 °F 5.4 °F 8.1 °F 65% 30.29 in 10.0 mi West 11.5 mph - N/A   Clear
9:58 PM 17.8 °F 5.2 °F 8.6 °F 67% 30.30 in 10.0 mi West 11.5 mph - N/A   Clear
10:04 PM 17.6 °F 4.3 °F 8.6 °F 68% 30.26 in 9.0 mi West 12.7 mph - N/A Snow Light Snow
10:09 PM 17.6 °F 4.3 °F 10.4 °F 73% 30.26 in 7.0 mi West 12.7 mph - N/A Snow Light Snow
10:14 PM 17.6 °F 5.0 °F 10.4 °F 73% 30.26 in 5.0 mi West 11.5 mph - N/A Snow Light Snow
10:54 PM 15.8 °F 5.1 °F 12.2 °F 86% 30.27 in 3.0 mi WSW 8.1 mph - N/A Snow Light Snow
10:58 PM 16.7 °F 8.3 °F 12.6 °F 84% 30.32 in 2.5 mi West 5.8 mph - 0.00 in Snow Light Snow
11:18 PM 15.8 °F 4.2 °F 12.2 °F 86% 30.28 in 2.5 mi WSW 9.2 mph - N/A Snow Light Snow
11:23 PM 15.8 °F 6.1 °F 14.0 °F 93% 30.28 in 3.0 mi WSW 6.9 mph - N/A Snow Light Snow
11:38 PM 15.8 °F 5.1 °F 12.2 °F 86% 30.29 in 3.0 mi WSW 8.1 mph - N/A Snow Light Snow
11:43 PM 15.8 °F 6.1 °F 12.2 °F 86% 30.29 in 3.0 mi WSW 6.9 mph - N/A Snow Light Snow
11:48 PM 15.8 °F 6.1 °F 12.2 °F 86% 30.29 in 2.5 mi WSW 6.9 mph - N/A Snow Light Snow
11:58 PM 16.5 °F 6.0 °F 12.7 °F 85% 30.34 in 2.5 mi WSW 8.1 mph - 0.00 in Snow Light Snow